sat.trackr.live / text

‹ back to catalog

STARLINK-31688

NORAD 59386 · 2024-062N

PAYLOAD ACTIVE UNKNOWN

§ Identity

Operator
Country
US
Launch date
2024-04-02
Launch site
AFWTR
Launch vehicle
Mass (kg)
RCS (m²)

Purposes: comms

External: N2YO · Heavens-Above · Gunter

§ Orbital elements

Epoch: 2026-05-25T01:27:47.965248Z

Period
93.85 min
Inclination
53.1595°
Eccentricity
0.0000982
Mean motion
15.34396205 rev/d
Perigee alt
462.0 km
Apogee alt
463.4 km
Semi-major
6,840.9 km
B*
2.8934e-5
RAAN
263.1034°
Arg perigee
71.3747°
Mean anomaly
288.7362°
Rev number
12,129

§ Raw data

STARLINK-316881 59386U 24062N   26145.06097182  .00000602  00000+0  28934-4 0  99932 59386  53.1595 263.1034 0000982  71.3747 288.7362 15.34396205121297

JSON: /api/v1/satellites/59386 · /tle

For live sub-satellite position, see the globe view (requires WebGL).

§ Visibility from observer

Set your observer location to see the next 7 days of passes ≥ 10°. The values pass through the URL so the page stays shareable.

No JS? Fill the form by hand. The geolocation button needs JavaScript.